Time_in_sec,gx,gy,gz
1314892253.39308286,0.19541943,0.03056206,-0.98024344
1314892253.44452620,0.19530578,0.03047377,-0.98026884
1314892253.49356580,0.19531796,0.03036084,-0.98026992
1314892253.54554462,0.19547171,0.03042408,-0.98023731
1314892253.59308195,0.19564275,0.03063903,-0.98019649
1314892253.64154410,0.19579921,0.03042196,-0.98017201
1314892253.69281387,0.19598363,0.03053090,-0.98013177
1314892253.74449706,0.19603252,0.03081218,-0.98011319
1314892253.79294705,0.19597098,0.03076483,-0.98012698
1314892253.84554553,0.19598171,0.03067671,-0.98012760
1314892253.89361954,0.19602654,0.03067057,-0.98011882
1314892253.94165897,0.19583970,0.03027256,-0.98016855
1314892253.99294257,0.19576019,0.03045250,-0.98017886
1314892254.04448605,0.19571394,0.03037812,-0.98019040
1314892254.09293938,0.19589032,0.03031887,-0.98015700
1314892254.14462352,0.19598977,0.03029681,-0.98013780
1314892254.19273901,0.19605221,0.03051094,-0.98011867
1314892254.24072647,0.19599915,0.03058206,-0.98012707
1314892254.29264736,0.19575435,0.03053910,-0.98017733
1314892254.34461594,0.19593347,0.03020647,-0.98015185
1314892254.39271760,0.19604675,0.03028141,-0.98012688
1314892254.44552398,0.19612111,0.03013851,-0.98011641
1314892254.49353909,0.19595910,0.03029132,-0.98014411
1314892254.54459333,0.19595751,0.03006489,-0.98015139
1314892254.59262276,0.19595966,0.03011291,-0.98014949
1314892254.64451766,0.19599004,0.03000494,-0.98014673
1314892254.69258499,0.19626714,0.02972062,-0.98009994
1314892254.74451852,0.19627465,0.02972155,-0.98009841
1314892254.79487133,0.19655539,0.02965892,-0.98004404
1314892254.84149528,0.19663376,0.02961011,-0.98002980
1314892254.89349651,0.19669886,0.02978237,-0.98001151
1314892254.94444942,0.19686195,0.02972392,-0.97998054
1314892254.99365234,0.19705266,0.02963662,-0.97994486
1314892255.04852414,0.19700099,0.02940592,-0.97996219
1314892255.09253979,0.19701192,0.02957493,-0.97995491
1314892255.14153671,0.19693842,0.02969716,-0.97996599
1314892255.19254851,0.19715739,0.02965602,-0.97992320
1314892255.24563098,0.19711543,0.02984318,-0.97992596
1314892255.29409146,0.19719792,0.02985867,-0.97990889
1314892255.34151864,0.19736722,0.02982923,-0.97987571
1314892255.39434028,0.19733375,0.03004011,-0.97987600
1314892255.44424105,0.19723693,0.03010289,-0.97989357
1314892255.49352336,0.19727453,0.03029492,-0.97988008
1314892255.54152107,0.19722505,0.03061492,-0.97988010
1314892255.59423590,0.19724702,0.03056358,-0.97987728
1314892255.64611244,0.19721620,0.03039746,-0.97988865
1314892255.69259262,0.19713518,0.03031798,-0.97990741
1314892255.74152350,0.19693671,0.03033417,-0.97994682
1314892255.79261947,0.19697513,0.03036438,-0.97993816
1314892255.84559822,0.19692482,0.03037281,-0.97994801
1314892255.89351630,0.19690168,0.03034827,-0.97995342
1314892255.94152260,0.19685638,0.03051038,-0.97995749
1314892255.99365735,0.19694031,0.03053595,-0.97993983
1314892256.04458952,0.19709682,0.03052127,-0.97990882
1314892256.09361386,0.19704623,0.03029542,-0.97992600
1314892256.14460707,0.19684965,0.03041475,-0.97996182
1314892256.19269872,0.19711668,0.03018078,-0.97991537
1314892256.24508882,0.19711196,0.03007463,-0.97991958
1314892256.29252076,0.19733525,0.03022769,-0.97986993
1314892256.34559917,0.19700078,0.03016812,-0.97993907
1314892256.39260578,0.19729013,0.03001879,-0.97988544
1314892256.44449472,0.19706043,0.03004120,-0.97993097
1314892256.49259090,0.19667502,0.03001855,-0.98000909
1314892256.54447103,0.19655307,0.02993784,-0.98003603
1314892256.59262657,0.19620927,0.02985370,-0.98010748
1314892256.64449787,0.19611254,0.02986904,-0.98012638
1314892256.69231009,0.19599455,0.03000421,-0.98014585
1314892256.74448752,0.19589826,0.03010750,-0.98016193
1314892256.79250908,0.19554480,0.02991483,-0.98023841
1314892256.84554100,0.19547160,0.02998150,-0.98025097
1314892256.89265442,0.19538958,0.02995618,-0.98026809
1314892256.94161773,0.19515379,0.03006845,-0.98031163
1314892256.99282503,0.19529007,0.02989086,-0.98028992
1314892257.04552078,0.19536305,0.02992638,-0.98027429
1314892257.09259367,0.19517992,0.03006532,-0.98030652
1314892257.14552116,0.19492747,0.02996478,-0.98035983
1314892257.19259095,0.19502070,0.03001581,-0.98033973
1314892257.24564171,0.19492928,0.02998238,-0.98035893
1314892257.29255152,0.19467123,0.03012503,-0.98040583
1314892257.34162498,0.19474254,0.03032498,-0.98038550
1314892257.39357829,0.19484675,0.03035383,-0.98036391
1314892257.44159889,0.19463052,0.03021082,-0.98041127
1314892257.49262929,0.19450076,0.03016424,-0.98043846
1314892257.54531884,0.19453925,0.03024056,-0.98042847
1314892257.59258413,0.19432762,0.03014278,-0.98047345
1314892257.64563894,0.19432293,0.03034165,-0.98046825
1314892257.69262695,0.19387163,0.03039436,-0.98055595
1314892257.74463582,0.19383504,0.03034017,-0.98056486
1314892257.79257584,0.19361441,0.03038598,-0.98060703
1314892257.84455824,0.19332293,0.03033315,-0.98066617
1314892257.89254785,0.19330591,0.03028376,-0.98067105
1314892257.94156241,0.19296890,0.03027027,-0.98073784
1314892257.99345398,0.19302610,0.03034881,-0.98072416
1314892258.04171991,0.19297250,0.03042040,-0.98073249
1314892258.09256291,0.19270056,0.03037050,-0.98078750
1314892258.14450169,0.19268554,0.03037312,-0.98079037
1314892258.19255567,0.19291224,0.03010989,-0.98075392
1314892258.24451399,0.19295478,0.03020964,-0.98074249
1314892258.29258966,0.19299535,0.03034284,-0.98073039
1314892258.34462953,0.19294857,0.03032422,-0.98074018
1314892258.39485693,0.19303191,0.03040560,-0.98072126
1314892258.44553876,0.19297119,0.03015291,-0.98074101
1314892258.49440908,0.19272944,0.03010958,-0.98078987
1314892258.54552102,0.19287895,0.03018308,-0.98075822
1314892258.59252882,0.19274053,0.03018679,-0.98078532
1314892258.64449787,0.19260194,0.03030309,-0.98080896
1314892258.69254017,0.19276488,0.02995520,-0.98078764
1314892258.74554229,0.19263103,0.02998619,-0.98081299
1314892258.79370022,0.19250861,0.03016414,-0.98083156
1314892258.84447742,0.19263581,0.03023126,-0.98080452
1314892258.89351511,0.19259725,0.03035517,-0.98080827
1314892258.94464636,0.19250105,0.03000463,-0.98083794
1314892258.99351811,0.19246102,0.03016787,-0.98084079
1314892259.04451227,0.19248277,0.03031530,-0.98083198
1314892259.09348607,0.19236012,0.03053260,-0.98084930
1314892259.14459038,0.19253559,0.03061392,-0.98081233
1314892259.19258213,0.19238406,0.03062295,-0.98084178
1314892259.24449229,0.19235404,0.03052887,-0.98085061
1314892259.29254842,0.19222739,0.03033369,-0.98088149
1314892259.34543037,0.19198086,0.03031589,-0.98093032
1314892259.39300323,0.19194172,0.03023919,-0.98094035
1314892259.44558239,0.19188067,0.03006197,-0.98095774
1314892259.49360228,0.19166741,0.03014408,-0.98099691
1314892259.54456639,0.19174411,0.03045738,-0.98097224
1314892259.59269929,0.19176631,0.03037752,-0.98097038
1314892259.64450693,0.19183629,0.03035413,-0.98095742
1314892259.69361329,0.19190828,0.03021764,-0.98094755
1314892259.74461174,0.19181059,0.03018071,-0.98096780
1314892259.79246998,0.19177400,0.03040169,-0.98096813
1314892259.84538460,0.19165552,0.03053194,-0.98098724
1314892259.89259982,0.19178985,0.03085002,-0.98095103
1314892259.94457126,0.19216804,0.03062558,-0.98088405
1314892259.99286127,0.19187833,0.03082643,-0.98093447
1314892260.04159975,0.19196455,0.03095783,-0.98091346
1314892260.09268165,0.19196013,0.03102930,-0.98091207
1314892260.14535093,0.19198171,0.03103626,-0.98090763
1314892260.19286251,0.19202941,0.03110106,-0.98089624
1314892260.24452305,0.19200282,0.03103581,-0.98090351
1314892260.29266620,0.19200335,0.03095291,-0.98090603
1314892260.34063482,0.19184724,0.03108777,-0.98093231
1314892260.39260578,0.19179620,0.03133217,-0.98093451
1314892260.44859076,0.19169945,0.03107096,-0.98096173
1314892260.49263501,0.19171167,0.03138749,-0.98094926
1314892260.54161668,0.19144845,0.03126646,-0.98100454
1314892260.59260821,0.19145484,0.03137906,-0.98099969
1314892260.64462543,0.19145260,0.03171491,-0.98098933
1314892260.69263268,0.19149511,0.03164515,-0.98098329
1314892260.74553704,0.19140192,0.03168012,-0.98100034
1314892260.79263210,0.19131933,0.03176650,-0.98101366
1314892260.84458280,0.19115347,0.03194690,-0.98104014
1314892260.89256549,0.19115715,0.03150648,-0.98105366
1314892260.94548464,0.19108092,0.03140214,-0.98107186
1314892260.99420476,0.19118588,0.03133668,-0.98105350
1314892261.04450870,0.19136294,0.03113349,-0.98102545
1314892261.09251809,0.19137119,0.03127351,-0.98101938
1314892261.14449573,0.19161430,0.03130514,-0.98097092
1314892261.19386792,0.19157712,0.03099573,-0.98098801
1314892261.24549985,0.19172460,0.03101990,-0.98095843
1314892261.29246759,0.19170192,0.03097494,-0.98096428
1314892261.34453011,0.19177578,0.03099126,-0.98094933
1314892261.39259148,0.19170805,0.03048218,-0.98097852
1314892261.44452477,0.19161088,0.03053273,-0.98099593
1314892261.49217129,0.19164211,0.03068037,-0.98098523
1314892261.54428434,0.19170090,0.03090468,-0.98096670
1314892261.59360385,0.19166707,0.03084160,-0.98097529
1314892261.64459157,0.19172959,0.03096057,-0.98095933
1314892261.69350410,0.19187304,0.03056070,-0.98094382
1314892261.74458933,0.19202613,0.03054411,-0.98091438
1314892261.79254341,0.19213047,0.03086560,-0.98088389
1314892261.84456539,0.19219454,0.03073556,-0.98087542
1314892261.89275622,0.19237473,0.03091845,-0.98083435
1314892261.94528604,0.19248530,0.03058160,-0.98082321
1314892261.99267983,0.19259806,0.03061599,-0.98080000
1314892262.04559851,0.19266871,0.03047588,-0.98079049
1314892262.09351444,0.19267760,0.03041482,-0.98079064
1314892262.14570522,0.19286062,0.03050155,-0.98075198
1314892262.19258761,0.19294655,0.02989308,-0.98075381
1314892262.24162340,0.19274985,0.02986060,-0.98079347
1314892262.29246593,0.19256994,0.03009575,-0.98082163
1314892262.34449959,0.19254182,0.02993627,-0.98083203
1314892262.39262605,0.19264146,0.03004753,-0.98080906
1314892262.44159484,0.19282041,0.02985107,-0.98077990
1314892262.49258089,0.19313064,0.02968081,-0.98072402
1314892262.54459953,0.19305462,0.02965059,-0.98073990
1314892262.59261656,0.19306387,0.02989632,-0.98073062
1314892262.64458299,0.19302398,0.02988632,-0.98073878
1314892262.69261861,0.19311860,0.02994773,-0.98071828
1314892262.74149513,0.19305850,0.02988951,-0.98073189
1314892262.79347897,0.19302751,0.02976476,-0.98074178
1314892262.84148979,0.19287891,0.02955099,-0.98077748
1314892262.89356089,0.19300070,0.02944249,-0.98075678
1314892262.94090199,0.19324602,0.02970846,-0.98070046
1314892262.99261427,0.19320274,0.02964122,-0.98071102
1314892263.04560804,0.19329057,0.02951394,-0.98069755
1314892263.09257770,0.19310397,0.02944180,-0.98073648
1314892263.14074421,0.19334074,0.02932540,-0.98069332
1314892263.19363570,0.19347324,0.02945780,-0.98066322
1314892263.24162173,0.19337040,0.02954676,-0.98068082
1314892263.29263067,0.19340269,0.02972494,-0.98066907
1314892263.34460568,0.19327906,0.02961694,-0.98069671
1314892263.39262843,0.19325669,0.02943530,-0.98070659
1314892263.44559431,0.19300074,0.02913051,-0.98076609
1314892263.49364209,0.19276777,0.02924855,-0.98080840
1314892263.54548001,0.19241558,0.02938511,-0.98087347
1314892263.59259915,0.19242883,0.02931475,-0.98087297
1314892263.64554358,0.19240669,0.02961571,-0.98086828
1314892263.69259644,0.19244152,0.02944706,-0.98086652
1314892263.74448776,0.19240973,0.02951231,-0.98087080
1314892263.79260778,0.19238094,0.02958797,-0.98087416
1314892263.84459615,0.19228258,0.02956083,-0.98089427
1314892263.89259648,0.19250843,0.02966471,-0.98084683
1314892263.94463873,0.19248946,0.02956224,-0.98085365
1314892263.99259281,0.19268014,0.02958023,-0.98081567
1314892264.04461455,0.19263073,0.02983034,-0.98081780
1314892264.09492946,0.19262197,0.02977782,-0.98082111
1314892264.14459944,0.19269443,0.02990188,-0.98080311
1314892264.19454241,0.19286187,0.02962193,-0.98077869
1314892264.24135256,0.19272481,0.02979804,-0.98080030
1314892264.29252148,0.19273872,0.02998587,-0.98079184
1314892264.34427929,0.19256269,0.02994847,-0.98082756
1314892264.39470577,0.19241039,0.02992700,-0.98085810
1314892264.44148946,0.19227698,0.03004551,-0.98088064
1314892264.49260545,0.19218277,0.02991352,-0.98090314
1314892264.54858780,0.19239486,0.02970120,-0.98086801
1314892264.59251308,0.19229208,0.02957428,-0.98089200
1314892264.64550138,0.19221425,0.02970133,-0.98090342
1314892264.69505930,0.19211590,0.02956198,-0.98092689
1314892264.74516487,0.19233183,0.02944764,-0.98088802
1314892264.79247761,0.19213988,0.02941150,-0.98092672
1314892264.84452629,0.19225754,0.02937118,-0.98090487
1314892264.89260435,0.19212193,0.02935767,-0.98093185
1314892264.94551611,0.19257353,0.02898567,-0.98085436
1314892264.99253130,0.19241601,0.02907094,-0.98088275
1314892265.04550624,0.19245682,0.02908744,-0.98087425
1314892265.09252048,0.19232208,0.02918499,-0.98089778
1314892265.14448547,0.19232581,0.02924167,-0.98089536
1314892265.19260621,0.19253530,0.02893633,-0.98086332
1314892265.24550939,0.19237306,0.02893508,-0.98089519
1314892265.29262805,0.19234051,0.02882630,-0.98090477
1314892265.34849095,0.19228577,0.02888618,-0.98091374
1314892265.39251661,0.19206585,0.02872479,-0.98096157
1314892265.44553900,0.19214794,0.02879986,-0.98094329
1314892265.49253273,0.19215822,0.02876010,-0.98094244
1314892265.54860401,0.19210038,0.02864694,-0.98095708
1314892265.59262490,0.19220738,0.02854165,-0.98093919
1314892265.64550209,0.19230432,0.02848669,-0.98092179
1314892265.69260263,0.19243281,0.02789885,-0.98091349
1314892265.74161029,0.19270814,0.02810272,-0.98085361
1314892265.79366827,0.19277416,0.02804224,-0.98084237
1314892265.84160185,0.19266286,0.02815621,-0.98086098
1314892265.89366412,0.19265437,0.02811378,-0.98086386
1314892265.94649625,0.19267461,0.02799219,-0.98086336
1314892265.99360418,0.19256908,0.02819759,-0.98087820
1314892266.04160857,0.19263873,0.02812262,-0.98086668
1314892266.09254551,0.19273538,0.02789204,-0.98085427
1314892266.14165187,0.19288526,0.02783331,-0.98082648
1314892266.19252563,0.19315847,0.02750571,-0.98078196
1314892266.24165797,0.19290574,0.02740102,-0.98083462
1314892266.29251194,0.19289805,0.02729540,-0.98083908
1314892266.34063911,0.19302148,0.02744204,-0.98081071
1314892266.39258575,0.19290944,0.02764595,-0.98082702
1314892266.44164610,0.19312174,0.02741073,-0.98079185
1314892266.49368930,0.19311270,0.02740514,-0.98079378
1314892266.54454327,0.19328046,0.02753879,-0.98075699
1314892266.59262729,0.19304614,0.02749947,-0.98080425
1314892266.64359450,0.19301052,0.02732542,-0.98081612
1314892266.69261003,0.19320484,0.02748226,-0.98077348
1314892266.74374676,0.19312870,0.02742394,-0.98079011
1314892266.79352856,0.19316071,0.02731117,-0.98078695
1314892266.84453177,0.19314022,0.02749712,-0.98078579
1314892266.89417267,0.19320498,0.02750580,-0.98077279
1314892266.94157314,0.19331412,0.02748373,-0.98075190
1314892266.99253988,0.19314992,0.02753335,-0.98078286
1314892267.04461169,0.19316839,0.02766140,-0.98077562
1314892267.09254074,0.19333015,0.02749471,-0.98074844
1314892267.14430666,0.19330767,0.02753061,-0.98075186
1314892267.19252276,0.19338141,0.02771697,-0.98073207
1314892267.24473882,0.19319542,0.02776263,-0.98076744
1314892267.29260421,0.19322254,0.02792415,-0.98075751
1314892267.34153199,0.19321876,0.02798077,-0.98075664
1314892267.39249754,0.19331526,0.02782241,-0.98074213
1314892267.44243908,0.19345516,0.02785562,-0.98071360
1314892267.49265432,0.19346790,0.02757177,-0.98071911
1314892267.54134679,0.19365524,0.02771314,-0.98067815
1314892267.59287024,0.19368622,0.02762014,-0.98067465
1314892267.64151788,0.19370988,0.02752036,-0.98067278
1314892267.69259143,0.19416340,0.02763448,-0.98057988
1314892267.74450469,0.19448584,0.02738348,-0.98052303
1314892267.79293871,0.19465659,0.02737531,-0.98048937
1314892267.84147239,0.19462690,0.02747752,-0.98049240
1314892267.89270329,0.19450170,0.02753359,-0.98051567
1314892267.94161272,0.19482980,0.02751120,-0.98045116
1314892267.99367166,0.19467245,0.02738976,-0.98048582
1314892268.04455471,0.19487321,0.02725595,-0.98044966
1314892268.09258556,0.19480422,0.02719683,-0.98046502
1314892268.14575982,0.19454983,0.02723602,-0.98051444
1314892268.19363165,0.19464600,0.02753640,-0.98048696
1314892268.24159765,0.19429761,0.02755165,-0.98055563
1314892268.29360795,0.19435458,0.02772785,-0.98053937
1314892268.34549379,0.19425385,0.02749717,-0.98056583
1314892268.39352632,0.19414910,0.02767189,-0.98058166
1314892268.44538212,0.19439629,0.02761875,-0.98053418
1314892268.49352074,0.19443956,0.02760050,-0.98052612
1314892268.54488373,0.19443043,0.02754093,-0.98052960
1314892268.59253073,0.19451451,0.02778347,-0.98050609
1314892268.64161658,0.19452454,0.02785678,-0.98050202
1314892268.69367146,0.19472461,0.02801430,-0.98045781
1314892268.74161434,0.19458728,0.02779478,-0.98049133
1314892268.79362345,0.19454025,0.02794107,-0.98049650
1314892268.84451437,0.19440426,0.02789632,-0.98052475
1314892268.89274430,0.19420586,0.02793302,-0.98056302
1314892268.94465137,0.19433893,0.02769300,-0.98054346
1314892268.99409819,0.19446825,0.02734591,-0.98052756
1314892269.04161382,0.19472457,0.02736465,-0.98047617
1314892269.09291267,0.19463786,0.02734905,-0.98049382
1314892269.14506769,0.19466253,0.02713792,-0.98049479
1314892269.19253254,0.19500896,0.02685799,-0.98043366
1314892269.24071288,0.19493604,0.02676241,-0.98045077
1314892269.29327273,0.19478670,0.02652416,-0.98048693
1314892269.34513307,0.19502590,0.02642029,-0.98044218
1314892269.39253283,0.19499053,0.02654236,-0.98044592
1314892269.44460130,0.19551044,0.02677663,-0.98033600
1314892269.49354410,0.19545540,0.02676671,-0.98034725
1314892269.54460955,0.19530452,0.02681681,-0.98037595
1314892269.59389043,0.19547743,0.02689782,-0.98033927
1314892269.64459562,0.19540806,0.02691965,-0.98035250
1314892269.69245958,0.19553930,0.02681691,-0.98032915
1314892269.74156833,0.19547372,0.02673318,-0.98034451
1314892269.79368544,0.19554936,0.02655594,-0.98033424
1314892269.84456730,0.19564325,0.02645692,-0.98031819
1314892269.89247751,0.19580838,0.02647692,-0.98028468
1314892269.94553709,0.19589186,0.02632136,-0.98027219
1314892269.99251628,0.19583765,0.02623684,-0.98028529
1314892270.04139972,0.19570196,0.02606859,-0.98031687
1314892270.09349370,0.19574330,0.02604701,-0.98030919
1314892270.14451694,0.19607226,0.02627592,-0.98023734
1314892270.19351006,0.19633681,0.02641562,-0.98018063
1314892270.24550009,0.19641761,0.02656100,-0.98016051
1314892270.29351830,0.19654009,0.02657367,-0.98013562
1314892270.34167624,0.19647549,0.02667244,-0.98014589
1314892270.39372134,0.19616184,0.02676193,-0.98020627
1314892270.44140410,0.19641378,0.02696634,-0.98015021
1314892270.49352503,0.19644550,0.02710173,-0.98014012
1314892270.54138970,0.19635830,0.02715718,-0.98015606
1314892270.59350324,0.19627882,0.02713166,-0.98017269
1314892270.64138746,0.19625269,0.02739433,-0.98017061
1314892270.69339705,0.19639530,0.02771019,-0.98013317
1314892270.74139667,0.19636627,0.02768271,-0.98013976
1314892270.79351115,0.19628524,0.02765287,-0.98015684
1314892270.84154034,0.19648513,0.02775387,-0.98011393
1314892270.89259338,0.19649014,0.02760965,-0.98011700
1314892270.94453406,0.19668379,0.02746821,-0.98008213
1314892270.99253297,0.19666189,0.02740834,-0.98008820
1314892271.04456496,0.19686665,0.02756515,-0.98004270
1314892271.09310913,0.19693710,0.02762029,-0.98002699
1314892271.14103341,0.19671773,0.02776889,-0.98006685
1314892271.19575000,0.19675223,0.02765716,-0.98006308
1314892271.24147344,0.19681779,0.02795645,-0.98004142
